STARLINK-1153, 45080

Orbit data source: Space-Track

STARLINK-1153, 45080 is a payload satellite owned by SpaceX/Seattle (US) in LEO that was launched on Wed, 29 Jan 2020 UTC via an FALCON 9 launch vehicle from the Air Force Eastern Test Range (AFETR). Payload-class satellites include a variety of spacecraft equipped with specific instruments for various scientific and technological missions. These include communications satellites like Starlink; space stations such as the ISS; scientific satellites like the Hubble; Earth observation satellites from companies like Planet Labs, Umbra, and HawkEye 360; GPS; miniature CubeSats for education and research; and military/defense satellites.

Loading next visibility...
Identifier
45080, 2020-006AN
Orbit
LEO
Last TLE update
19 hours ago
Origin
Manufacturer
SpaceX/Seattle
Mission
Operational Commercial Communications
Bus & Motor
STARLINK, Unknown motor
Mass
260 kg wet, ~248 kg dry
Launch date (UTC)
2020-01-29 (5 years ago)
Launch vehicle
FALCON 9
Launch site
Air Force Eastern Test Range (AFETR)
Object type
Payload
Rocket body
Debris
Shape & HBR
Box + 1 Pan, 8.86 m
Radar Cross Section
13.562 m², Large (>1 m²)

Expand to show TLE details & history

TLE from 19 hours ago
0 STARLINK-1153
1 45080U 20006AN  25128.45389555  .00001461  00000-0  11698-3 0  9997
2 45080  53.0544 196.8769 0001344  91.1033 269.0110 15.06400103290735
Epoch: 2025-05-08T10:53Z
Definitive object data (Epoch: 2025-05-08T10:53:36.575Z)
Latitude
-0.00002°
Longitude
166.95032°
Altitude
548.107 km
Speed
7.589 km/s
True Right ascension
13h 07m 30s
True Declination
0° 00' 00"
Sunlit
Object was in full shadow at TLE epoch
Visualization TLE readout
Latitude
52.85925°
Longitude
-115.76223°
Altitude
552.756 km
Speed
7.592 km/s
Apparent Right ascension
22h 56m 58s
Apparent Declination
18° 15' 36"
Sunlit
Object is in daylight
Visualization observer readout
Local Sidereal Time
14:31:18
Azimuth
51.767° ENE
Elevation
-13.377°
Doppler factor
1
Orbital elements
Apogee altitude
548.413 km
Perigee altitude
546.551 km
Semi-major axis
6,925.619 km
Eccentricity
0.0001344
Inclination
53.0544°
RAAN
196.8769°
Arg. of periapsis
91.1033°
True anomaly
268.9956°
Mean anomaly
269.011°
Eccentric anomaly
269.0033°
Mean motion
3.76578 °/min
BSTAR
0.00011698
Orbital period
95.6 mins
Loading maneuver chart data...
Loading SW <> Apogee altitude chart data...
Loading historical data...
Loading historical data...
Loading historical data...
Loading historical data...
Loading historical data...
Loading historical data...
Loading historical data...

STARLINK-1153 Visibility forecast

Observer location: undefined°, undefined°

Span
Click to sort rows by Start time (UTC) header in descending order
Start Az.
Max El. time (UTC)
Max El. Az.
Max El.
End time (UTC)
End Az.
7 mins2025-05-09 07:47:28.892Z250.259° W2025-05-09 07:51:28.892Z347.279° N36.555°2025-05-09 07:54:28.892Z39.5° NE
5 mins2025-05-09 12:50:28.892Z337.176° NNW2025-05-09 12:52:28.892Z16.853° NNE25.819°2025-05-09 12:55:28.892Z81.23° E
5 mins2025-05-09 14:30:28.892Z287.263° WNW2025-05-09 14:32:28.892Z227.674° WSW36.605°2025-05-09 14:35:28.892Z155.825° SSE
5 mins2025-05-10 06:03:28.892Z176.702° S2025-05-10 06:05:28.892Z128.414° SE27.314°2025-05-10 06:08:28.892Z72.589° E
|